Hourly Weather Salta

Today, 12 July, Sunday

Time Temperature Precipitation Wind Pressure Humidity
00:00 +12°C° 0 mm 1 mps 649 mmHg 46%
01:00 +12°C° 0 mm 1 mps 650 mmHg 44%
02:00 +11°C° 0 mm 1 mps 650 mmHg 44%
03:00 +11°C° 0 mm 1 mps 649 mmHg 42%
04:00 +10°C° 0 mm 2 mps 649 mmHg 40%
05:00 +10°C° 0 mm 2 mps 649 mmHg 38%
06:00 +12°C° 0 mm 2 mps 650 mmHg 34%
07:00 +13°C° 0 mm 2 mps 651 mmHg 29%
08:00 +15°C° 0 mm 2 mps 652 mmHg 25%
09:00 +18°C° 0 mm 2 mps 653 mmHg 22%
10:00 +21°C° 0 mm 2 mps 654 mmHg 18%
11:00 +25°C° 0 mm 2 mps 655 mmHg 15%
12:00 +26°C° 0 mm 2 mps 654 mmHg 16%
13:00 +26°C° 0 mm 2 mps 654 mmHg 17%
14:00 +27°C° 0 mm 2 mps 653 mmHg 18%
15:00 +25°C° 0 mm 2 mps 653 mmHg 23%
16:00 +24°C° 0 mm 2 mps 652 mmHg 28%
17:00 +23°C° 0 mm 2 mps 652 mmHg 33%
18:00 +19°C° 0 mm 2 mps 652 mmHg 41%
19:00 +16°C° 0 mm 1 mps 651 mmHg 48%
20:00 +14°C° 0 mm 1 mps 651 mmHg 56%
21:00 +13°C° 0 mm 1 mps 651 mmHg 60%
22:00 +12°C° 0 mm 1 mps 651 mmHg 64%
23:00 +12°C° 0 mm 1 mps 651 mmHg 67%

Tomorrow, 13 July, Monday

Time Temperature Precipitation Wind Pressure Humidity
00:00 +12°C° 0 mm 1 mps 651 mmHg 69%
01:00 +11°C° 0 mm 1 mps 651 mmHg 71%
02:00 +11°C° 0 mm 1 mps 650 mmHg 74%
03:00 +10°C° 0 mm 1 mps 650 mmHg 75%
04:00 +10°C° 0 mm 1 mps 650 mmHg 76%
05:00 +10°C° 0 mm 1 mps 650 mmHg 76%
06:00 +10°C° 0 mm 1 mps 651 mmHg 75%
07:00 +11°C° 0 mm 1 mps 652 mmHg 73%
08:00 +11°C° 0 mm 1 mps 652 mmHg 72%
09:00 +14°C° 0 mm 1 mps 653 mmHg 64%
10:00 +18°C° 0 mm 1 mps 654 mmHg 57%
11:00 +20°C° 0 mm 1 mps 655 mmHg 49%
12:00 +21°C° 0 mm 1 mps 655 mmHg 47%
13:00 +21°C° 0 mm 2 mps 654 mmHg 45%
14:00 +21°C° 0 mm 2 mps 654 mmHg 44%
15:00 +20°C° 0 mm 2 mps 654 mmHg 47%
16:00 +20°C° 0 mm 2 mps 654 mmHg 51%
17:00 +19°C° 0 mm 2 mps 654 mmHg 55%
18:00 +17°C° 0 mm 2 mps 654 mmHg 64%
19:00 +14°C° 0 mm 1 mps 654 mmHg 73%
20:00 +12°C° 0 mm 1 mps 654 mmHg 82%
21:00 +12°C° 0 mm 1 mps 654 mmHg 81%
22:00 +12°C° 0 mm 1 mps 655 mmHg 79%
23:00 +12°C° 0 mm 1 mps 655 mmHg 77%

Day after tomorrow, 14 July, Tuesday

Time Temperature Precipitation Wind Pressure Humidity
00:00 +12°C° 0 mm 1 mps 655 mmHg 78%
01:00 +12°C° 0 mm 1 mps 654 mmHg 79%
02:00 +11°C° 0 mm 1 mps 654 mmHg 79%
03:00 +11°C° 0 mm 1 mps 654 mmHg 78%
04:00 +11°C° 0 mm 1 mps 654 mmHg 78%
05:00 +11°C° 0 mm 1 mps 653 mmHg 77%
06:00 +11°C° 0 mm 1 mps 654 mmHg 76%
07:00 +11°C° 0 mm 1 mps 654 mmHg 75%
08:00 +11°C° 0 mm 1 mps 654 mmHg 75%
09:00 +12°C° 0 mm 1 mps 654 mmHg 71%
10:00 +13°C° 0 mm 1 mps 655 mmHg 67%
11:00 +14°C° 0 mm 2 mps 655 mmHg 64%
12:00 +15°C° 0 mm 2 mps 654 mmHg 61%
13:00 +15°C° 0 mm 2 mps 653 mmHg 59%
14:00 +16°C° 0 mm 2 mps 653 mmHg 56%
15:00 +16°C° 0 mm 2 mps 652 mmHg 58%
16:00 +15°C° 0 mm 2 mps 652 mmHg 60%
17:00 +15°C° 0 mm 2 mps 652 mmHg 61%
18:00 +14°C° 0 mm 2 mps 652 mmHg 65%
19:00 +13°C° 0 mm 1 mps 652 mmHg 69%
20:00 +11°C° 0 mm 1 mps 652 mmHg 72%
21:00 +11°C° 0 mm 1 mps 652 mmHg 73%
22:00 +11°C° 0 mm 1 mps 652 mmHg 74%
23:00 +10°C° 0 mm 1 mps 652 mmHg 75%

15 July, Wednesday

Time Temperature Precipitation Wind Pressure Humidity
00:00 +10°C° 0 mm 1 mps 651 mmHg 76%
01:00 +8°C° 0 mm 0 mps 651 mmHg 76%
02:00 +8°C° 0 mm 0 mps 651 mmHg 77%
03:00 +8°C° 0 mm 0 mps 650 mmHg 76%
04:00 +8°C° 0 mm 0 mps 650 mmHg 76%
05:00 +9°C° 0 mm 1 mps 650 mmHg 76%
06:00 +9°C° 0 mm 1 mps 650 mmHg 74%
07:00 +10°C° 0 mm 1 mps 650 mmHg 72%
08:00 +10°C° 0 mm 1 mps 651 mmHg 70%
09:00 +12°C° 0 mm 1 mps 651 mmHg 63%
10:00 +14°C° 0 mm 1 mps 651 mmHg 57%
11:00 +16°C° 0 mm 2 mps 652 mmHg 50%
12:00 +18°C° 0 mm 2 mps 651 mmHg 46%
13:00 +19°C° 0 mm 2 mps 651 mmHg 42%
14:00 +20°C° 0 mm 2 mps 650 mmHg 38%
15:00 +19°C° 0 mm 2 mps 650 mmHg 40%
16:00 +18°C° 0 mm 2 mps 650 mmHg 42%
17:00 +19°C° 0 mm 1 mps 650 mmHg 45%
18:00 +16°C° 0 mm 1 mps 650 mmHg 52%
19:00 +13°C° 0 mm 1 mps 650 mmHg 59%
20:00 +10°C° 0 mm 0 mps 650 mmHg 66%
21:00 +10°C° 0 mm 0 mps 650 mmHg 68%
22:00 +10°C° 0 mm 1 mps 651 mmHg 69%
23:00 +10°C° 0 mm 1 mps 651 mmHg 70%

16 July, Thursday

Time Temperature Precipitation Wind Pressure Humidity
00:00 +10°C° 0 mm 1 mps 651 mmHg 70%
01:00 +10°C° 0 mm 1 mps 650 mmHg 70%
02:00 +9°C° 0 mm 1 mps 650 mmHg 70%
03:00 +9°C° 0 mm 1 mps 650 mmHg 69%
04:00 +9°C° 0 mm 1 mps 650 mmHg 68%
05:00 +9°C° 0 mm 1 mps 650 mmHg 67%
06:00 +10°C° 0 mm 1 mps 651 mmHg 62%
07:00 +10°C° 0 mm 1 mps 651 mmHg 58%
08:00 +11°C° 0 mm 1 mps 652 mmHg 53%
09:00 +14°C° 0 mm 1 mps 653 mmHg 47%
10:00 +18°C° 0 mm 1 mps 654 mmHg 40%
11:00 +21°C° 0 mm 1 mps 654 mmHg 34%
12:00 +22°C° 0 mm 1 mps 654 mmHg 32%
13:00 +23°C° 0 mm 2 mps 653 mmHg 31%
14:00 +24°C° 0 mm 2 mps 653 mmHg 30%
15:00 +23°C° 0 mm 2 mps 652 mmHg 34%
16:00 +22°C° 0 mm 1 mps 652 mmHg 37%
17:00 +21°C° 0 mm 1 mps 651 mmHg 41%
18:00 +19°C° 0 mm 1 mps 651 mmHg 47%
19:00 +16°C° 0 mm 1 mps 651 mmHg 53%
20:00 +14°C° 0 mm 1 mps 650 mmHg 59%
21:00 +13°C° 0 mm 1 mps 650 mmHg 61%
22:00 +12°C° 0 mm 1 mps 650 mmHg 64%
23:00 +12°C° 0 mm 1 mps 650 mmHg 66%

17 July, Friday

Time Temperature Precipitation Wind Pressure Humidity
00:00 +12°C° 0 mm 1 mps 649 mmHg 64%
01:00 +11°C° 0 mm 1 mps 649 mmHg 63%
02:00 +11°C° 0 mm 1 mps 649 mmHg 61%
03:00 +11°C° 0 mm 1 mps 649 mmHg 60%
04:00 +11°C° 0 mm 1 mps 648 mmHg 58%
05:00 +11°C° 0 mm 1 mps 648 mmHg 57%
06:00 +11°C° 0 mm 1 mps 649 mmHg 54%
07:00 +12°C° 0 mm 1 mps 649 mmHg 51%
08:00 +13°C° 0 mm 1 mps 649 mmHg 49%
09:00 +16°C° 0 mm 1 mps 650 mmHg 42%
10:00 +20°C° 0 mm 1 mps 651 mmHg 36%
11:00 +23°C° 0 mm 2 mps 651 mmHg 29%
12:00 +25°C° 0 mm 2 mps 651 mmHg 27%
13:00 +26°C° 0 mm 2 mps 651 mmHg 24%
14:00 +27°C° 0 mm 2 mps 651 mmHg 22%
15:00 +26°C° 0 mm 2 mps 650 mmHg 25%
16:00 +25°C° 0 mm 1 mps 650 mmHg 29%
17:00 +24°C° 0 mm 1 mps 650 mmHg 33%
18:00 +22°C° 0 mm 1 mps 649 mmHg 39%
19:00 +19°C° 0 mm 1 mps 649 mmHg 45%
20:00 +16°C° 0 mm 1 mps 649 mmHg 51%
21:00 +15°C° 0 mm 1 mps 649 mmHg 50%
22:00 +15°C° 0 mm 1 mps 649 mmHg 48%
23:00 +15°C° 0 mm 2 mps 649 mmHg 46%
Show more